| time (UTC) | temp F | wind direction | speed MPH | gust MPH | rain 1hr in | rain 24hr in | rain mn in | humidity % | barometer mb |
| 20260505124559 | 77 | 271 | 1.0 | 7.0 | 0.00 | 0.00 | 0.00 | 32 | 1006.6 |
| 20260505123106 | 78 | 251 | 1.0 | 6.0 | 0.00 | 0.00 | 0.00 | 33 | 1006.7 |
| 20260505121557 | 77 | 291 | 0.0 | 6.0 | 0.00 | 0.00 | 0.00 | 33 | 1006.5 |
| 20260505120112 | 77 | 177 | 0.0 | 10.0 | 0.00 | 0.00 | 0.00 | 33 | 1006.7 |
| 20260505114556 | 77 | 251 | 2.0 | 9.0 | 0.00 | 0.00 | 0.00 | 32 | 1006.8 |
| 20260505113053 | 76 | 281 | 0.0 | 4.0 | 0.00 | 0.00 | 0.00 | 34 | 1006.8 |
| 20260505111551 | 76 | 219 | 1.0 | 6.0 | 0.00 | 0.00 | 0.00 | 35 | 1006.9 |
| 20260505110108 | 76 | 148 | 0.0 | 5.0 | 0.00 | 0.00 | 0.00 | 35 | 1006.9 |
| 20260505101546 | 75 | 243 | 0.0 | 7.0 | 0.00 | 0.00 | 0.00 | 37 | 1007.1 |
| 20260505100043 | 75 | 134 | 2.0 | 9.0 | 0.00 | 0.00 | 0.00 | 39 | 1007.2 |
| 20260505094542 | 75 | 287 | 1.0 | 7.0 | 0.00 | 0.00 | 0.00 | 38 | 1007.3 |
| 20260505093042 | 74 | 218 | 1.0 | 5.0 | 0.00 | 0.00 | 0.00 | 38 | 1007.3 |
| 20260505091551 | 74 | 216 | 1.0 | 6.0 | 0.00 | 0.00 | 0.00 | 39 | 1007.5 |
| 20260505090039 | 74 | 31 | 0.0 | 5.0 | 0.00 | 0.00 | 0.00 | 39 | 1007.6 |
| 20260505084538 | 75 | 229 | 0.0 | 6.0 | 0.00 | 0.00 | 0.00 | 41 | 1007.7 |
| 20260505083041 | 74 | 159 | 1.0 | 7.0 | 0.00 | 0.00 | 0.00 | 41 | 1007.7 |
| 20260505081533 | 73 | 256 | 0.0 | 11.0 | 0.00 | 0.00 | 0.00 | 43 | 1007.8 |
| 20260505080031 | 73 | 252 | 0.0 | 8.0 | 0.00 | 0.00 | 0.00 | 43 | 1007.9 |
| 20260505074534 | 73 | 185 | 0.0 | 8.0 | 0.00 | 0.00 | 0.00 | 44 | 1008.0 |
| 20260505073028 | 72 | 209 | 1.0 | 4.0 | 0.00 | 0.00 | 0.00 | 46 | 1008.1 |
| 20260505071527 | 72 | 285 | 0.0 | 7.0 | 0.00 | 0.00 | 0.00 | 45 | 1008.1 |
| 20260505070024 | 72 | 168 | 0.0 | 3.0 | 0.00 | 0.00 | 0.00 | 49 | 1008.3 |
| 20260505064531 | 71 | 193 | 0.0 | 0.0 | 0.00 | 0.00 | 0.00 | 52 | 1008.3 |
| 20260505063019 | 70 | 168 | 0.0 | 2.0 | 0.00 | 0.00 | 0.00 | 52 | 1008.3 |
| 20260505061516 | 68 | 160 | 0.0 | 1.0 | 0.00 | 0.00 | 0.00 | 54 | 1008.2 |
| 20260505060014 | 67 | 280 | 0.0 | 4.0 | 0.00 | 0.00 | 0.00 | 56 | 1008.3 |
| 20260505054518 | 66 | 210 | 0.0 | 5.0 | 0.00 | 0.00 | 0.00 | 57 | 1008.3 |
| 20260505053008 | 66 | 283 | 0.0 | 3.0 | 0.00 | 0.00 | 0.00 | 57 | 1008.3 |
| 20260505051508 | 65 | 250 | 0.0 | 3.0 | 0.00 | 0.00 | 0.00 | 59 | 1008.4 |
| 20260505041603 | 61 | 230 | 0.0 | 3.0 | 0.00 | 0.00 | 0.00 | 67 | 1008.6 |
| 20260505040059 | 60 | 233 | 0.0 | 3.0 | 0.00 | 0.00 | 0.00 | 69 | 1008.6 |
| 20260505034606 | 59 | 280 | 0.0 | 4.0 | 0.00 | 0.00 | 0.00 | 69 | 1008.6 |
| 20260505033045 | 58 | 263 | 0.0 | 3.0 | 0.00 | 0.00 | 0.00 | 71 | 1008.6 |
| 20260505031544 | 58 | 244 | 0.0 | 3.0 | 0.00 | 0.00 | 0.00 | 72 | 1008.5 |
| 20260505030047 | 57 | 204 | 0.0 | 2.0 | 0.00 | 0.00 | 0.00 | 75 | 1008.5 |
| 20260505024540 | 56 | 274 | 0.0 | 0.0 | 0.00 | 0.00 | 0.00 | 77 | 1008.5 |
| 20260505023043 | 54 | 274 | 0.0 | 0.0 | 0.00 | 0.00 | 0.00 | 80 | 1008.5 |
| 20260505021538 | 54 | 274 | 0.0 | 0.0 | 0.00 | 0.00 | 0.00 | 81 | 1008.4 |
| 20260505020052 | 53 | 274 | 0.0 | 0.0 | 0.00 | 0.00 | 0.00 | 82 | 1008.4 |
| 20260505014540 | 52 | 274 | 0.0 | 0.0 | 0.00 | 0.00 | 0.00 | 83 | 1008.3 |
| 20260505013040 | 51 | 274 | 0.0 | 0.0 | 0.00 | 0.00 | 0.00 | 84 | 1008.3 |
| 20260505011534 | 50 | 274 | 0.0 | 0.0 | 0.00 | 0.00 | 0.00 | 86 | 1008.2 |
| 20260505010034 | 50 | 274 | 0.0 | 0.0 | 0.00 | 0.00 | 0.00 | 86 | 1008.1 |
| 20260505004555 | 49 | 274 | 0.0 | 0.0 | 0.00 | 0.00 | 0.00 | 87 | 1008.1 |
| 20260505003031 | 49 | 274 | 0.0 | 0.0 | 0.00 | 0.00 | 0.00 | 85 | 1008.0 |
| 20260505001536 | 50 | 274 | 0.0 | 0.0 | 0.00 | 0.00 | 0.00 | 85 | 1008.1 |
| 20260505000027 | 50 | 274 | 0.0 | 0.0 | 0.00 | 0.00 | 0.00 | 82 | 1008.0 |
| 20260504234523 | 52 | 274 | 0.0 | 0.0 | 0.00 | 0.00 | 0.00 | 80 | 1008.0 |
| 20260504233024 | 53 | 274 | 0.0 | 0.0 | 0.00 | 0.00 | 0.00 | 79 | 1007.9 |
| 20260504231521 | 53 | 274 | 0.0 | 0.0 | 0.00 | 0.00 | 0.00 | 79 | 1008.0 |
| 20260504230021 | 53 | 274 | 0.0 | 0.0 | 0.00 | 0.00 | 0.00 | 80 | 1008.0 |
| 20260504224524 | 53 | 274 | 0.0 | 0.0 | 0.00 | 0.00 | 0.00 | 78 | 1007.9 |
| 20260504223017 | 54 | 274 | 0.0 | 0.0 | 0.00 | 0.00 | 0.00 | 78 | 1008.0 |
| 20260504221516 | 54 | 274 | 0.0 | 0.0 | 0.00 | 0.00 | 0.00 | 77 | 1008.0 |
| 20260504220013 | 54 | 274 | 0.0 | 0.0 | 0.00 | 0.00 | 0.00 | 77 | 1008.0 |
| 20260504214510 | 55 | 274 | 0.0 | 0.0 | 0.00 | 0.00 | 0.00 | 76 | 1007.8 |
| 20260504213026 | 55 | 274 | 0.0 | 1.0 | 0.00 | 0.00 | 0.00 | 76 | 1007.9 |
| 20260504211510 | 55 | 272 | 0.0 | 0.0 | 0.00 | 0.00 | 0.00 | 76 | 1007.8 |
| 20260504210007 | 56 | 272 | 0.0 | 0.0 | 0.00 | 0.00 | 0.00 | 75 | 1007.7 |
| 20260504204507 | 56 | 272 | 0.0 | 0.0 | 0.00 | 0.00 | 0.00 | 73 | 1007.7 |
| 20260504203003 | 57 | 272 | 0.0 | 1.0 | 0.00 | 0.00 | 0.00 | 73 | 1007.8 |
| 20260504201607 | 57 | 250 | 0.0 | 0.0 | 0.00 | 0.00 | 0.00 | 72 | 1007.7 |
| 20260504200058 | 57 | 250 | 0.0 | 0.0 | 0.00 | 0.00 | 0.00 | 70 | 1007.7 |
| 20260504194604 | 58 | 248 | 0.0 | 4.0 | 0.00 | 0.00 | 0.00 | 69 | 1007.8 |
| 20260504193057 | 58 | 270 | 0.0 | 0.0 | 0.00 | 0.00 | 0.00 | 67 | 1007.7 |
| 20260504191621 | 59 | 270 | 0.0 | 0.0 | 0.00 | 0.00 | 0.00 | 66 | 1007.7 |
| 20260504184605 | 60 | 270 | 0.0 | 2.0 | 0.00 | 0.00 | 0.00 | 63 | 1007.7 |
| 20260504183055 | 60 | 272 | 0.0 | 5.0 | 0.00 | 0.00 | 0.00 | 59 | 1007.8 |
| 20260504181554 | 61 | 305 | 0.0 | 4.0 | 0.00 | 0.00 | 0.00 | 57 | 1007.9 |
| 20260504180054 | 61 | 254 | 0.0 | 5.0 | 0.00 | 0.00 | 0.00 | 52 | 1007.9 |
| 20260504174553 | 62 | 285 | 0.0 | 0.0 | 0.00 | 0.00 | 0.00 | 51 | 1007.8 |
| 20260504173052 | 63 | 285 | 0.0 | 0.0 | 0.00 | 0.00 | 0.00 | 49 | 1007.6 |
| 20260504171552 | 63 | 285 | 0.0 | 4.0 | 0.00 | 0.00 | 0.00 | 49 | 1007.5 |